Nogales, AZ

8:16 AM MST on June 27, 2017 (GMT -0700)
Nogales International

Weather History for KOLS - March, 2013

Change the Weather History Date:

Wednesday, March 27, 2013

  Actual Average (KFHU) Record (KFHU)
Temperature  
Mean Temperature 64 °F -  
Max Temperature 80 °F 69 °F 84 °F (1988)
Min Temperature 48 °F 47 °F 31 °F (1983)
Degree Days  
Heating Degree Days 1    
Growing Degree Days 14 (Base 50)    
Moisture  
Dew Point 20 °F    
Average Humidity 19    
Maximum Humidity 31    
Minimum Humidity 9    
Precipitation  
Precipitation 0.00 in - - ()
Sea Level Pressure  
Sea Level Pressure 29.89 in    
Wind  
Wind Speed 5 mph (SSW)    
Max Wind Speed 17 mph    
Max Gust Speed 29 mph    
Visibility 10 miles    
Events      
Averages and records for this station are not official NWS values.
T = Trace of Precipitation, MM = Missing Value Source: NWS Daily Summary

Daily Weather History Graph

Daily Weather History Graph

Search for Another Location

Airport or City:

Trip Planner

Search our weather history database for the weather conditions in past years. The results will help you decide how hot, cold, wet, or windy it might be!

Date:

Astronomy

Mar. 27, 2013 Rise Set
Actual Time 6:17 AM MST 6:39 PM MST
Civil Twilight 5:53 AM MST 7:04 PM MST
Nautical Twilight 5:25 AM MST 7:32 PM MST
Astronomical Twilight 4:56 AM MST 8:01 PM MST
Moon 7:21 PM MST 6:14 AM MST
Length of Visible Light 13h 10m
Length of Day
12h 21m
Full, 100% of the Moon is Illuminated
Mar 27
Full
Apr 2
Last Quarter
Apr 10
New
Apr 18
First Quarter
Apr 25
Full

Hourly Weather History & Observations

Time (MST) Temp. Dew Point Humidity Pressure Visibility Wind Dir Wind Speed Gust Speed Precip Events Conditions
12:54 AM 55.9 °F 16.0 °F 21% 29.85 in 10.0 mi Calm Calm - N/A   Clear
1:54 AM 55.0 °F 16.0 °F 22% 29.84 in 10.0 mi Calm Calm - N/A   Clear
2:54 AM 51.1 °F 17.1 °F 26% 29.84 in 10.0 mi Calm Calm - N/A   Clear
3:54 AM 50.0 °F 18.0 °F 28% 29.84 in 10.0 mi Calm Calm - N/A   Clear
4:54 AM 48.9 °F 19.0 °F 31% 29.85 in 10.0 mi SSE 6.9 mph - N/A   Clear
5:54 AM 51.1 °F 18.0 °F 27% 29.86 in 10.0 mi Variable 3.5 mph - N/A   Clear
6:54 AM 51.1 °F 18.0 °F 27% 29.89 in 10.0 mi Calm Calm - N/A   Clear
7:54 AM 55.9 °F 19.9 °F 25% 29.91 in 10.0 mi Calm Calm - N/A   Clear
8:54 AM 68.0 °F 19.9 °F 16% 29.91 in 10.0 mi South 12.7 mph - N/A   Clear
9:54 AM 72.0 °F 14.0 °F 11% 29.90 in 10.0 mi SSE 11.5 mph 20.7 mph N/A   Clear
10:54 AM 73.9 °F 19.0 °F 13% 29.91 in 10.0 mi SSW 17.3 mph 23.0 mph N/A   Clear
11:54 AM 75.0 °F 19.0 °F 12% 29.91 in 10.0 mi SSW 11.5 mph 19.6 mph N/A   Clear
12:34 PM 77.0 °F 17.1 °F 10% 30.05 in 10.0 mi SW 12.7 mph 21.9 mph N/A   Clear
12:54 PM 79.0 °F 15.1 °F 9% 29.88 in 10.0 mi SW 13.8 mph 28.8 mph N/A   Clear
1:54 PM 78.1 °F 23.0 °F 13% 29.87 in 10.0 mi SW 17.3 mph 26.5 mph N/A   Clear
2:54 PM 80.1 °F 21.0 °F 11% 29.86 in 10.0 mi SSW 13.8 mph - N/A   Clear
3:54 PM 79.0 °F 24.1 °F 13% 29.85 in 10.0 mi South 13.8 mph 23.0 mph N/A   Clear
4:54 PM 78.1 °F 24.1 °F 14% 29.85 in 10.0 mi SSW 15.0 mph 23.0 mph N/A   Clear
5:54 PM 75.0 °F 26.1 °F 16% 29.86 in 10.0 mi SW 13.8 mph - N/A   Clear
6:54 PM 71.1 °F 26.1 °F 19% 29.88 in 10.0 mi WSW 6.9 mph - N/A   Clear
7:54 PM 64.9 °F 25.0 °F 22% 29.91 in 10.0 mi SSW 3.5 mph - N/A   Clear
8:54 PM 63.0 °F 25.0 °F 24% 29.91 in 10.0 mi SSE 3.5 mph - N/A   Clear
9:54 PM 62.1 °F 24.1 °F 23% 29.93 in 10.0 mi Calm Calm - N/A   Clear
10:54 PM 60.1 °F 23.0 °F 24% 29.94 in 10.0 mi Calm Calm - N/A   Clear
11:54 PM 57.0 °F 23.0 °F 27% 29.95 in 10.0 mi ESE 4.6 mph - N/A   Clear